Regional Weather Roundup
Issued by NWS

Home | Current Version | Previous Version | Graphics & Text | Print | Product List | Glossary On
Versions: 1 2 3 4 5 6 7 8 9 10 11 12 13 14 15 16 17 18 19 20 21 22 23 24 25 26 27 28 29 30 31 32 33 34 35 36 37 38 39 40 41 42 43 44 45 46 47 48 49 50
000
ASUS43 KFSD 282310
RWRSD

WEATHER ROUNDUP FOR SOUTH DAKOTA
NATIONAL WEATHER SERVICE SIOUX FALLS SD
600 PM CDT MON JUL 28 2014

NOTE: "FAIR" INDICATES FEW OR NO CLOUDS BELOW 12,000 FEET WITH NO
SIGNIFICANT WEATHER AND/OR OBSTRUCTIONS TO VISIBILITY.


SDZ001>005-009-010-012>017-290000-
NORTHWEST AND NORTH CENTRAL SOUTH DAKOTA

CITY           SKY/WX    TMP DP  RH WIND       PRES   REMARKS
BUFFALO          N/A     79  53  40 E13G18    30.20F
FAITH            N/A     78  52  40 E7        30.25F
MOBRIDGE       MOSUNNY   76  52  43 VRB6      30.23F
$$

SDZ012>016-024>037-041>051-057-063-072>074-290000-
SOUTHWEST AND SOUTH CENTRAL SOUTH DAKOTA

CITY           SKY/WX    TMP DP  RH WIND       PRES   REMARKS
RAPID CTY ARPT MOSUNNY   80  54  40 SE8       30.25F
PIERRE         SUNNY     79  51  37 VRB5      30.22F
CUSTER         SUNNY     74  53  48 E15G21    30.36F
ELLSWORTH AFB  SUNNY     81  54  39 SE9       30.24F
PHILIP         SUNNY     83  49  30 E13       30.21F
PINE RIDGE     SUNNY     82  56  40 E6        30.23F
WINNER         FAIR      83  48  29 N9        30.23F
$$

SDZ004>011-016>023-039-040-290000-
NORTHEAST SOUTH DAKOTA

CITY           SKY/WX    TMP DP  RH WIND       PRES   REMARKS
ABERDEEN       CLOUDY    73  50  44 NE10      30.24F
WATERTOWN      MOSUNNY   70  49  47 N8        30.24F
SISSETON         N/A     70  53  54 N9        30.23F
$$

SDZ017-020-022-023-036>040-048>070-290000-
SOUTHEAST SOUTH DAKOTA

CITY           SKY/WX    TMP DP  RH WIND       PRES   REMARKS
SIOUX FALLS    MOSUNNY   71  54  54 N8        30.22F
HURON          PTSUNNY   72  51  47 N5        30.23F
CHAMBERLAIN    MOSUNNY   76  52  42 E5        30.24F
MITCHELL       MOSUNNY   76  53  44 N12       30.23F
YANKTON          N/A     73  54  49 N9        30.22F
$$

ABBREVIATIONS USED IN REMARKS
   TC - TEMPERATURE IN CELSIUS
  WCI - WIND CHILL INDEX
   HX - HEAT INDEX
  VSB - VISIBILITY



USA.gov is the U.S. government's official web portal to all federal, state and local government web resources and services.